ONEWEB-0060, 45455

Orbit data source: Space-Track

ONEWEB-0060, 45455 is a payload satellite owned by One Web (UK) in LEO that was launched on Sat, 21 Mar 2020 UTC via a SOYUZ-2-1B launch vehicle from the Tyuratam Missile And Space Complex (TTMTR). Payload-class satellites include a variety of spacecraft equipped with specific instruments for various scientific and technological missions. These include communications satellites like Starlink; space stations such as the ISS; scientific satellites like the Hubble; Earth observation satellites from companies like Planet Labs, Umbra, and HawkEye 360; GPS; miniature CubeSats for education and research; and military/defense satellites.

Loading next visibility...
Identifier
45455, 2020-020AH
Orbit
LEO
Country
Flag of UKUK
Related business
Manufacturer
One Web
Mission
Operational Commercial Communications
Bus & Motor
ARROW, Unknown motor
Mass
148 kg wet, ~140 kg dry
Launch date (UTC)
2020-03-21 (6 years ago)
Launch vehicle
SOYUZ-2-1B
Launch site
Tyuratam Missile And Space Complex (TTMTR)
Object type
Payload
Rocket body
Debris
Shape & HBR
Trap Box + 2 Pan, 6.7 m
Radar Cross Section
3.464 m², Large (>1 m²)

Expand to show TLE details & history
Last TLE update: 2 days ago

TLE from 2 days ago
0 ONEWEB-0060
1 45455U 20020AH  26171.30112819 -.00000525  00000-0 -15169-2 0  9997
2 45455  87.8888  20.4467 0001122  56.4927 303.6308 13.11415394302958
Epoch: 2026-06-20T07:13Z
TLE epoch observation values (Epoch: 2026-06-20T07:13:37.475Z)
Latitude
-0.00003°
Longitude
3.52283°
Altitude
1,220.106 km
Speed
7.245 km/s
True Right ascension
01h 21m 47s
True Declination
0° 00' 00"
Sunlit
Object was in daylight at epoch
Visualization orbit readout
Latitude
Unknown
Longitude
Unknown
Altitude
Unknown
Speed
Unknown
Apparent Right ascension
Unknown
Apparent Declination
Unknown
Sunlit
N/A
Visualization observer readout
Local Sidereal Time
21:37:31
Azimuth
Unknown
Elevation
Unknown
Doppler factor
Unknown
Orbital elements
Apogee altitude
1,215.659 km
Perigee altitude
1,213.955 km
Semi-major axis
7,592.944 km
Eccentricity
0.00011
Inclination
87.8888°
RAAN
20.4467°
Arg. of periapsis
56.4927°
True anomaly
303.62009°
Mean anomaly
303.6308°
Eccentric anomaly
303.62545°
Mean motion
3.28041 °/min
Orbital period
109.74 mins
BSTAR
-0.0015169
Loading maneuver chart data...
Computing Atmospheric mass density...
Loading historical data...
Loading historical data...
Loading historical data...
Loading historical data...
Loading historical data...
Loading historical data...
Loading historical data...

Documentation

Showing up to 5 results
|